Starlink 31160

operational
NORAD ID: 58749 Int'l Des: 2024-005 Owner: SPXS Country: US Constellation: starlink
LEOCIRCULAR

Über Starlink 31160

Beschreibung wird geladen...

Live-Position

3D-Globus wird geladen...

Nächste Überflüge

Höhenverlauf

Altitude vs Time

uPlot chart will show altitude changes over time

Zweizeiliger Elementsatz

1 58749U 24005X 25351.25032277 .00001146 00000-0 99933-4 0 9997
2 58749 43.0042 309.2533 0001154 276.9066 83.1645 15.02527702108029
Epoch: 17. Dez. 2025 • Age: 7 hours

Aktueller Status

Höhe 561.0 km
Geschwindigkeit 7.58 km/s
Subsatellitenpunkt -11.54°S, 145.16°W
Startdatum 7. Jan. 2024
Alter 1.9 years
Typ internet

Technische Details

Klassifizierung Payload
Masse 730.00 kg
Trockenmasse 700.00 kg
Gesamtmasse 730.00 kg
Länge 0.30 m
Durchmesser 4.10 m
Spannweite 29.00 m
Form Box + pan
Hersteller SPXS
Bus-Typ Starlink V2M
Phasenstatus In Orbit
Besitzer/Staat SPXS/US

Große Konstellationen

Loading constellations...